Year,Month,Day,Hour,Minute,Value (Times are PST for temperature in C)
2009,06,15,00,00,12.20
2009,06,15,00,01,12.20
2009,06,15,00,02,12.20
2009,06,15,00,03,12.20
2009,06,15,00,04,12.20
2009,06,15,00,05,12.20
2009,06,15,00,06,12.20
2009,06,15,00,07,12.20
2009,06,15,00,08,12.20
2009,06,15,00,09,12.20
2009,06,15,00,10,12.20
2009,06,15,00,11,12.20
2009,06,15,00,12,12.20
2009,06,15,00,13,12.20
2009,06,15,00,14,12.20
2009,06,15,00,15,12.20
2009,06,15,00,16,12.20
2009,06,15,00,17,12.20
2009,06,15,00,18,12.20
2009,06,15,00,19,12.20
2009,06,15,00,20,12.20
2009,06,15,00,21,12.10
2009,06,15,00,22,12.20
2009,06,15,00,23,12.10
2009,06,15,00,24,12.10
2009,06,15,00,25,12.10
2009,06,15,00,26,12.10
2009,06,15,00,27,12.10
2009,06,15,00,28,12.10
2009,06,15,00,29,12.10
2009,06,15,00,30,12.10
2009,06,15,00,31,12.10
2009,06,15,00,32,12.10
2009,06,15,00,33,12.10
2009,06,15,00,34,12.10
2009,06,15,00,35,12.10
2009,06,15,00,36,12.10
2009,06,15,00,37,12.10
2009,06,15,00,38,12.10
2009,06,15,00,39,12.10
2009,06,15,00,40,12.10
2009,06,15,00,41,12.00
2009,06,15,00,42,12.00
2009,06,15,00,43,12.00
2009,06,15,00,44,12.00
2009,06,15,00,45,12.00
2009,06,15,00,46,12.00
2009,06,15,00,47,12.00
2009,06,15,00,48,12.00
2009,06,15,00,49,11.90
2009,06,15,00,50,11.90
2009,06,15,00,51,11.90
2009,06,15,00,52,11.90
2009,06,15,00,53,11.90
2009,06,15,00,54,11.90
2009,06,15,00,55,11.90
2009,06,15,00,56,11.90
2009,06,15,00,57,11.90
2009,06,15,00,58,11.90
2009,06,15,00,59,11.90
2009,06,15,01,00,11.90
2009,06,15,01,01,11.90
2009,06,15,01,02,11.90
2009,06,15,01,03,11.90
2009,06,15,01,04,11.90
2009,06,15,01,05,11.90
2009,06,15,01,06,11.90
2009,06,15,01,07,11.90
2009,06,15,01,08,11.90
2009,06,15,01,09,11.90
2009,06,15,01,10,11.90
2009,06,15,01,11,11.90
2009,06,15,01,12,11.80
2009,06,15,01,13,11.80
2009,06,15,01,14,11.80
2009,06,15,01,15,11.80
2009,06,15,01,16,11.80
2009,06,15,01,17,11.80
2009,06,15,01,18,11.80
2009,06,15,01,19,11.80
2009,06,15,01,20,11.80
2009,06,15,01,21,11.80
2009,06,15,01,22,11.80
2009,06,15,01,23,11.80
2009,06,15,01,24,11.70
2009,06,15,01,25,11.70
2009,06,15,01,26,11.70
2009,06,15,01,27,11.70
2009,06,15,01,28,11.70
2009,06,15,01,29,11.70
2009,06,15,01,30,11.70
2009,06,15,01,31,11.70
2009,06,15,01,32,11.70
2009,06,15,01,33,11.70
2009,06,15,01,34,11.70
2009,06,15,01,35,11.70
2009,06,15,01,36,11.70
2009,06,15,01,37,11.70
2009,06,15,01,38,11.70
2009,06,15,01,39,11.70
2009,06,15,01,40,11.70
2009,06,15,01,41,11.70
2009,06,15,01,42,11.70
2009,06,15,01,43,11.60
2009,06,15,01,44,11.60
2009,06,15,01,45,11.60
2009,06,15,01,46,11.60
2009,06,15,01,47,11.60
2009,06,15,01,48,11.60
2009,06,15,01,49,11.60
2009,06,15,01,50,11.60
2009,06,15,01,51,11.60
2009,06,15,01,52,11.60
2009,06,15,01,53,11.60
2009,06,15,01,54,11.60
2009,06,15,01,55,11.60
2009,06,15,01,56,11.60
2009,06,15,01,57,11.60
2009,06,15,01,58,11.60
2009,06,15,01,59,11.60
2009,06,15,02,00,11.60
2009,06,15,02,01,11.60
2009,06,15,02,02,11.60
2009,06,15,02,03,11.60
2009,06,15,02,04,11.60
2009,06,15,02,05,11.60
2009,06,15,02,06,11.60
2009,06,15,02,07,11.60
2009,06,15,02,08,11.60
2009,06,15,02,09,11.60
2009,06,15,02,10,11.60
2009,06,15,02,11,11.60
2009,06,15,02,12,11.60
2009,06,15,02,13,11.60
2009,06,15,02,14,11.60
2009,06,15,02,15,11.60
2009,06,15,02,16,11.60
2009,06,15,02,17,11.60
2009,06,15,02,18,11.60
2009,06,15,02,19,11.60
2009,06,15,02,20,11.60
2009,06,15,02,21,11.60
2009,06,15,02,22,11.60
2009,06,15,02,23,11.60
2009,06,15,02,24,11.60
2009,06,15,02,25,11.60
2009,06,15,02,26,11.60
2009,06,15,02,27,11.60
2009,06,15,02,28,11.60
2009,06,15,02,29,11.60
2009,06,15,02,30,11.60
2009,06,15,02,31,11.60
2009,06,15,02,32,11.60
2009,06,15,02,33,11.60
2009,06,15,02,34,11.60
2009,06,15,02,35,11.60
2009,06,15,02,36,11.60
2009,06,15,02,37,11.60
2009,06,15,02,38,11.60
2009,06,15,02,39,11.60
2009,06,15,02,40,11.60
2009,06,15,02,41,11.60
2009,06,15,02,42,11.60
2009,06,15,02,43,11.60
2009,06,15,02,44,11.60
2009,06,15,02,45,11.60
2009,06,15,02,46,11.60
2009,06,15,02,47,11.60
2009,06,15,02,48,11.50
2009,06,15,02,49,11.50
2009,06,15,02,50,11.50
2009,06,15,02,51,11.50
2009,06,15,02,52,11.50
2009,06,15,02,53,11.50
2009,06,15,02,54,11.50
2009,06,15,02,55,11.50
2009,06,15,02,56,11.50
2009,06,15,02,57,11.50
2009,06,15,02,58,11.50
2009,06,15,02,59,11.50
2009,06,15,03,00,11.50
2009,06,15,03,01,11.50
2009,06,15,03,02,11.60
2009,06,15,03,03,11.60
2009,06,15,03,04,11.60
2009,06,15,03,05,11.60
2009,06,15,03,06,11.60
2009,06,15,03,07,11.50
2009,06,15,03,08,11.50
2009,06,15,03,09,11.50
2009,06,15,03,10,11.50
2009,06,15,03,11,11.50
2009,06,15,03,12,11.50
2009,06,15,03,13,11.50
2009,06,15,03,14,11.50
2009,06,15,03,15,11.50
2009,06,15,03,16,11.50
2009,06,15,03,17,11.50
2009,06,15,03,18,11.50
2009,06,15,03,19,11.50
2009,06,15,03,20,11.40
2009,06,15,03,21,11.50
2009,06,15,03,22,11.40
2009,06,15,03,23,11.40
2009,06,15,03,24,11.40
2009,06,15,03,25,11.40
2009,06,15,03,26,11.40
2009,06,15,03,27,11.40
2009,06,15,03,28,11.50
2009,06,15,03,29,11.50
2009,06,15,03,30,11.50
2009,06,15,03,31,11.50
2009,06,15,03,32,11.50
2009,06,15,03,33,11.50
2009,06,15,03,34,11.50
2009,06,15,03,35,11.50
2009,06,15,03,36,11.50
2009,06,15,03,37,11.50
2009,06,15,03,38,11.50
2009,06,15,03,39,11.50
2009,06,15,03,40,11.50
2009,06,15,03,41,11.50
2009,06,15,03,42,11.50
2009,06,15,03,43,11.50
2009,06,15,03,44,11.50
2009,06,15,03,45,11.50
2009,06,15,03,46,11.50
2009,06,15,03,47,11.50
2009,06,15,03,48,11.50
2009,06,15,03,49,11.50
2009,06,15,03,50,11.50
2009,06,15,03,51,11.50
2009,06,15,03,52,11.50
2009,06,15,03,53,11.50
2009,06,15,03,54,11.50
2009,06,15,03,55,11.50
2009,06,15,03,56,11.50
2009,06,15,03,57,11.50
2009,06,15,03,58,11.50
2009,06,15,03,59,11.50
2009,06,15,04,00,11.50
2009,06,15,04,01,11.50
2009,06,15,04,02,11.60
2009,06,15,04,03,11.60
2009,06,15,04,04,11.60
2009,06,15,04,05,11.60
2009,06,15,04,06,11.60
2009,06,15,04,07,11.60
2009,06,15,04,08,11.60
2009,06,15,04,09,11.60
2009,06,15,04,10,11.60
2009,06,15,04,11,11.60
2009,06,15,04,12,11.60
2009,06,15,04,13,11.60
2009,06,15,04,14,11.60
2009,06,15,04,15,11.60
2009,06,15,04,16,11.60
2009,06,15,04,17,11.60
2009,06,15,04,18,11.60
2009,06,15,04,19,11.60
2009,06,15,04,20,11.60
2009,06,15,04,21,11.60
2009,06,15,04,22,11.60
2009,06,15,04,23,11.60
2009,06,15,04,24,11.60
2009,06,15,04,25,11.60
2009,06,15,04,26,11.60
2009,06,15,04,27,11.60
2009,06,15,04,28,11.60
2009,06,15,04,29,11.60
2009,06,15,04,30,11.60
2009,06,15,04,31,11.60
2009,06,15,04,32,11.60
2009,06,15,04,33,11.60
2009,06,15,04,34,11.60
2009,06,15,04,35,11.70
2009,06,15,04,36,11.70
2009,06,15,04,37,11.70
2009,06,15,04,38,11.70
2009,06,15,04,39,11.70
2009,06,15,04,40,11.70
2009,06,15,04,41,11.70
2009,06,15,04,42,11.70
2009,06,15,04,43,11.70
2009,06,15,04,44,11.70
2009,06,15,04,45,11.70
2009,06,15,04,46,11.70
2009,06,15,04,47,11.70
2009,06,15,04,48,11.70
2009,06,15,04,49,11.70
2009,06,15,04,50,11.70
2009,06,15,04,51,11.70
2009,06,15,04,52,11.70
2009,06,15,04,53,11.70
2009,06,15,04,54,11.70
2009,06,15,04,55,11.70
2009,06,15,04,56,11.70
2009,06,15,04,57,11.70
2009,06,15,04,58,11.70
2009,06,15,04,59,11.70
2009,06,15,05,00,11.70
2009,06,15,05,01,11.70
2009,06,15,05,02,11.70
2009,06,15,05,03,11.70
2009,06,15,05,04,11.70
2009,06,15,05,05,11.70
2009,06,15,05,06,11.60
2009,06,15,05,07,11.60
2009,06,15,05,08,11.60
2009,06,15,05,09,11.60
2009,06,15,05,10,11.60
2009,06,15,05,11,11.60
2009,06,15,05,12,11.60
2009,06,15,05,13,11.60
2009,06,15,05,14,11.60
2009,06,15,05,15,11.60
2009,06,15,05,16,11.60
2009,06,15,05,17,11.60
2009,06,15,05,18,11.60
2009,06,15,05,19,11.60
2009,06,15,05,20,11.60
2009,06,15,05,21,11.60
2009,06,15,05,22,11.60
2009,06,15,05,23,11.60
2009,06,15,05,24,11.60
2009,06,15,05,25,11.60
2009,06,15,05,26,11.60
2009,06,15,05,27,11.60
2009,06,15,05,28,11.60
2009,06,15,05,29,11.60
2009,06,15,05,30,11.60
2009,06,15,05,31,11.60
2009,06,15,05,32,11.60
2009,06,15,05,33,11.60
2009,06,15,05,34,11.60
2009,06,15,05,35,11.60
2009,06,15,05,36,11.60
2009,06,15,05,37,11.60
2009,06,15,05,38,11.60
2009,06,15,05,39,11.60
2009,06,15,05,40,11.60
2009,06,15,05,41,11.60
2009,06,15,05,42,11.60
2009,06,15,05,43,11.60
2009,06,15,05,44,11.60
2009,06,15,05,45,11.60
2009,06,15,05,46,11.60
2009,06,15,05,47,11.60
2009,06,15,05,48,11.60
2009,06,15,05,49,11.60
2009,06,15,05,50,11.60
2009,06,15,05,51,11.60
2009,06,15,05,52,11.60
2009,06,15,05,53,11.70
2009,06,15,05,54,11.70
2009,06,15,05,55,11.70
2009,06,15,05,56,11.70
2009,06,15,05,57,11.70
2009,06,15,05,58,11.80
2009,06,15,05,59,11.80
2009,06,15,06,00,11.80
2009,06,15,06,01,11.80
2009,06,15,06,02,11.80
2009,06,15,06,03,11.80
2009,06,15,06,04,11.80
2009,06,15,06,05,11.90
2009,06,15,06,06,11.90
2009,06,15,06,07,11.90
2009,06,15,06,08,11.90
2009,06,15,06,09,12.00
2009,06,15,06,10,12.00
2009,06,15,06,11,12.00
2009,06,15,06,12,12.10
2009,06,15,06,13,12.10
2009,06,15,06,14,12.10
2009,06,15,06,15,12.10
2009,06,15,06,16,12.20
2009,06,15,06,17,12.20
2009,06,15,06,18,12.20
2009,06,15,06,19,12.30
2009,06,15,06,20,12.30
2009,06,15,06,21,12.30
2009,06,15,06,22,12.30
2009,06,15,06,23,12.40
2009,06,15,06,24,12.40
2009,06,15,06,25,12.40
2009,06,15,06,26,12.40
2009,06,15,06,27,12.40
2009,06,15,06,28,12.50
2009,06,15,06,29,12.50
2009,06,15,06,30,12.50
2009,06,15,06,31,12.50
2009,06,15,06,32,12.50
2009,06,15,06,33,12.40
2009,06,15,06,34,12.40
2009,06,15,06,35,12.40
2009,06,15,06,36,12.40
2009,06,15,06,37,12.40
2009,06,15,06,38,12.40
2009,06,15,06,39,12.40
2009,06,15,06,40,12.40
2009,06,15,06,41,12.40
2009,06,15,06,42,12.40
2009,06,15,06,43,12.40
2009,06,15,06,44,12.40
2009,06,15,06,45,12.40
2009,06,15,06,46,12.40
2009,06,15,06,47,12.40
2009,06,15,06,48,12.40
2009,06,15,06,49,12.40
2009,06,15,06,50,12.30
2009,06,15,06,51,12.30
2009,06,15,06,52,12.30
2009,06,15,06,53,12.30
2009,06,15,06,54,12.30
2009,06,15,06,55,12.30
2009,06,15,06,56,12.30
2009,06,15,06,57,12.40
2009,06,15,06,58,12.40
2009,06,15,06,59,12.40
2009,06,15,07,00,12.40
2009,06,15,07,01,12.50
2009,06,15,07,02,12.50
2009,06,15,07,03,12.50
2009,06,15,07,04,12.60
2009,06,15,07,05,12.60
2009,06,15,07,06,12.70
2009,06,15,07,07,12.70
2009,06,15,07,08,12.70
2009,06,15,07,09,12.80
2009,06,15,07,10,12.80
2009,06,15,07,11,12.80
2009,06,15,07,12,12.80
2009,06,15,07,13,12.80
2009,06,15,07,14,12.90
2009,06,15,07,15,12.90
2009,06,15,07,16,12.90
2009,06,15,07,17,13.00
2009,06,15,07,18,13.00
2009,06,15,07,19,13.10
2009,06,15,07,20,13.10
2009,06,15,07,21,13.10
2009,06,15,07,22,13.10
2009,06,15,07,23,13.20
2009,06,15,07,24,13.20
2009,06,15,07,25,13.20
2009,06,15,07,26,13.30
2009,06,15,07,27,13.30
2009,06,15,07,28,13.30
2009,06,15,07,29,13.30
2009,06,15,07,30,13.30
2009,06,15,07,31,13.30
2009,06,15,07,32,13.30
2009,06,15,07,33,13.30
2009,06,15,07,34,13.30
2009,06,15,07,35,13.40
2009,06,15,07,36,13.40
2009,06,15,07,37,13.40
2009,06,15,07,38,13.40
2009,06,15,07,39,13.40
2009,06,15,07,40,13.50
2009,06,15,07,41,13.40
2009,06,15,07,42,13.40
2009,06,15,07,43,13.40
2009,06,15,07,44,13.50
2009,06,15,07,45,13.50
2009,06,15,07,46,13.60
2009,06,15,07,47,13.60
2009,06,15,07,48,13.60
2009,06,15,07,49,13.60
2009,06,15,07,50,13.60
2009,06,15,07,51,13.70
2009,06,15,07,52,13.70
2009,06,15,07,53,13.70
2009,06,15,07,54,13.80
2009,06,15,07,55,13.80
2009,06,15,07,56,13.80
2009,06,15,07,57,13.90
2009,06,15,07,58,13.90
2009,06,15,07,59,13.90
2009,06,15,08,00,13.90
2009,06,15,08,01,14.00
2009,06,15,08,02,14.10
2009,06,15,08,03,14.10
2009,06,15,08,04,14.10
2009,06,15,08,05,14.20
2009,06,15,08,06,14.20
2009,06,15,08,07,14.30
2009,06,15,08,08,14.30
2009,06,15,08,09,14.40
2009,06,15,08,10,14.40
2009,06,15,08,11,14.40
2009,06,15,08,12,14.40
2009,06,15,08,13,14.50
2009,06,15,08,14,14.50
2009,06,15,08,15,14.60
2009,06,15,08,16,14.70
2009,06,15,08,17,14.80
2009,06,15,08,18,14.90
2009,06,15,08,19,15.00
2009,06,15,08,20,15.00
2009,06,15,08,21,15.00
2009,06,15,08,22,15.00
2009,06,15,08,23,15.00
2009,06,15,08,24,15.00
2009,06,15,08,25,15.00
2009,06,15,08,26,15.00
2009,06,15,08,27,15.00
2009,06,15,08,28,15.00
2009,06,15,08,29,15.10
2009,06,15,08,30,15.20
2009,06,15,08,31,15.20
2009,06,15,08,32,15.30
2009,06,15,08,33,15.50
2009,06,15,08,34,15.60
2009,06,15,08,35,15.70
2009,06,15,08,36,15.80
2009,06,15,08,37,15.90
2009,06,15,08,38,16.00
2009,06,15,08,39,16.00
2009,06,15,08,40,16.10
2009,06,15,08,41,16.20
2009,06,15,08,42,16.20
2009,06,15,08,43,16.00
2009,06,15,08,44,15.90
2009,06,15,08,45,15.80
2009,06,15,08,46,15.70
2009,06,15,08,47,15.70
2009,06,15,08,48,15.70
2009,06,15,08,49,15.80
2009,06,15,08,50,15.80
2009,06,15,08,51,15.90
2009,06,15,08,52,16.00
2009,06,15,08,53,16.10
2009,06,15,08,54,16.10
2009,06,15,08,55,16.10
2009,06,15,08,56,16.00
2009,06,15,08,57,15.90
2009,06,15,08,58,15.90
2009,06,15,08,59,15.90
2009,06,15,09,00,15.90
2009,06,15,09,01,15.90
2009,06,15,09,02,15.90
2009,06,15,09,03,15.90
2009,06,15,09,04,15.90
2009,06,15,09,05,15.80
2009,06,15,09,06,15.80
2009,06,15,09,07,15.90
2009,06,15,09,08,15.80
2009,06,15,09,09,15.80
2009,06,15,09,10,15.70
2009,06,15,09,11,15.70
2009,06,15,09,12,15.70
2009,06,15,09,13,15.70
2009,06,15,09,14,15.70
2009,06,15,09,15,15.70
2009,06,15,09,16,15.60
2009,06,15,09,17,15.60
2009,06,15,09,18,15.60
2009,06,15,09,19,15.60
2009,06,15,09,20,15.60
2009,06,15,09,21,15.60
2009,06,15,09,22,15.50
2009,06,15,09,23,15.50
2009,06,15,09,24,15.40
2009,06,15,09,25,15.40
2009,06,15,09,26,15.40
2009,06,15,09,27,15.30
2009,06,15,09,28,15.30
2009,06,15,09,29,15.30
2009,06,15,09,30,15.30
2009,06,15,09,31,15.30
2009,06,15,09,32,15.30
2009,06,15,09,33,15.30
2009,06,15,09,34,15.30
2009,06,15,09,35,15.40
2009,06,15,09,36,15.40
2009,06,15,09,37,15.40
2009,06,15,09,38,15.40
2009,06,15,09,39,15.40
2009,06,15,09,40,15.40
2009,06,15,09,41,15.50
2009,06,15,09,42,15.60
2009,06,15,09,43,15.60
2009,06,15,09,44,15.60
2009,06,15,09,45,15.70
2009,06,15,09,46,15.70
2009,06,15,09,47,15.70
2009,06,15,09,48,15.80
2009,06,15,09,49,15.80
2009,06,15,09,50,15.70
2009,06,15,09,51,15.60
2009,06,15,09,52,15.60
2009,06,15,09,53,15.60
2009,06,15,09,54,15.80
2009,06,15,09,55,15.90
2009,06,15,09,56,16.00
2009,06,15,09,57,16.00
2009,06,15,09,58,16.10
2009,06,15,09,59,16.10
2009,06,15,10,00,16.10
2009,06,15,10,01,16.10
2009,06,15,10,02,16.10
2009,06,15,10,03,16.10
2009,06,15,10,04,16.10
2009,06,15,10,05,16.10
2009,06,15,10,06,16.10
2009,06,15,10,07,16.10
2009,06,15,10,08,16.10
2009,06,15,10,09,16.10
2009,06,15,10,10,16.00
2009,06,15,10,11,16.00
2009,06,15,10,12,15.90
2009,06,15,10,13,16.00
2009,06,15,10,14,16.00
2009,06,15,10,15,16.10
2009,06,15,10,16,16.10
2009,06,15,10,17,16.20
2009,06,15,10,18,16.20
2009,06,15,10,19,16.20
2009,06,15,10,20,16.20
2009,06,15,10,21,16.20
2009,06,15,10,22,16.10
2009,06,15,10,23,16.00
2009,06,15,10,24,15.90
2009,06,15,10,25,15.90
2009,06,15,10,26,15.90
2009,06,15,10,27,15.90
2009,06,15,10,28,15.90
2009,06,15,10,29,16.00
2009,06,15,10,30,16.10
2009,06,15,10,31,16.10
2009,06,15,10,32,16.20
2009,06,15,10,33,16.20
2009,06,15,10,34,16.20
2009,06,15,10,35,16.20
2009,06,15,10,36,16.20
2009,06,15,10,37,16.20
2009,06,15,10,38,16.20
2009,06,15,10,39,16.20
2009,06,15,10,40,16.10
2009,06,15,10,41,16.10
2009,06,15,10,42,16.10
2009,06,15,10,43,16.10
2009,06,15,10,44,16.20
2009,06,15,10,45,16.20
2009,06,15,10,46,16.20
2009,06,15,10,47,16.20
2009,06,15,10,48,16.20
2009,06,15,10,49,16.20
2009,06,15,10,50,16.20
2009,06,15,10,51,16.30
2009,06,15,10,52,16.40
2009,06,15,10,53,16.40
2009,06,15,10,54,16.40
2009,06,15,10,55,16.50
2009,06,15,10,56,16.60
2009,06,15,10,57,16.70
2009,06,15,10,58,16.70
2009,06,15,10,59,16.70
2009,06,15,11,00,16.70
2009,06,15,11,01,16.70
2009,06,15,11,02,16.70
2009,06,15,11,03,16.70
2009,06,15,11,04,16.70
2009,06,15,11,05,16.60
2009,06,15,11,06,16.60
2009,06,15,11,07,16.70
2009,06,15,11,08,16.70
2009,06,15,11,09,16.80
2009,06,15,11,10,16.70
2009,06,15,11,11,16.80
2009,06,15,11,12,16.80
2009,06,15,11,13,16.80
2009,06,15,11,14,16.80
2009,06,15,11,15,16.80
2009,06,15,11,16,16.70
2009,06,15,11,17,16.70
2009,06,15,11,18,16.60
2009,06,15,11,19,16.60
2009,06,15,11,20,16.60
2009,06,15,11,21,16.70
2009,06,15,11,22,16.70
2009,06,15,11,23,16.70
2009,06,15,11,24,16.60
2009,06,15,11,25,16.60
2009,06,15,11,26,16.50
2009,06,15,11,27,16.50
2009,06,15,11,28,16.60
2009,06,15,11,29,16.70
2009,06,15,11,30,16.70
2009,06,15,11,31,16.80
2009,06,15,11,32,16.80
2009,06,15,11,33,16.80
2009,06,15,11,34,16.70
2009,06,15,11,35,16.70
2009,06,15,11,36,16.70
2009,06,15,11,37,16.80
2009,06,15,11,38,16.90
2009,06,15,11,39,16.90
2009,06,15,11,40,16.80
2009,06,15,11,41,16.90
2009,06,15,11,42,17.00
2009,06,15,11,43,17.10
2009,06,15,11,44,17.20
2009,06,15,11,45,17.20
2009,06,15,11,46,17.20
2009,06,15,11,47,17.30
2009,06,15,11,48,17.30
2009,06,15,11,49,17.30
2009,06,15,11,50,17.30
2009,06,15,11,51,17.30
2009,06,15,11,52,17.40
2009,06,15,11,53,17.20
2009,06,15,11,54,17.20
2009,06,15,11,55,17.20
2009,06,15,11,56,17.10
2009,06,15,11,57,17.00
2009,06,15,11,58,16.90
2009,06,15,11,59,17.00
2009,06,15,12,00,17.10
2009,06,15,12,01,17.10
2009,06,15,12,02,17.10
2009,06,15,12,03,17.30
2009,06,15,12,04,17.30
2009,06,15,12,05,17.40
2009,06,15,12,06,17.40
2009,06,15,12,07,17.40
2009,06,15,12,08,17.30
2009,06,15,12,09,17.30
2009,06,15,12,10,17.40
2009,06,15,12,11,17.40
2009,06,15,12,12,17.40
2009,06,15,12,13,17.50
2009,06,15,12,14,17.50
2009,06,15,12,15,17.60
2009,06,15,12,16,17.70
2009,06,15,12,17,17.70
2009,06,15,12,18,17.80
2009,06,15,12,19,17.90
2009,06,15,12,20,17.90
2009,06,15,12,21,17.90
2009,06,15,12,22,17.80
2009,06,15,12,23,17.70
2009,06,15,12,24,17.70
2009,06,15,12,25,17.70
2009,06,15,12,26,17.70
2009,06,15,12,27,17.80
2009,06,15,12,28,17.90
2009,06,15,12,29,18.00
2009,06,15,12,30,18.10
2009,06,15,12,31,18.20
2009,06,15,12,32,18.30
2009,06,15,12,33,18.30
2009,06,15,12,34,18.40
2009,06,15,12,35,18.30
2009,06,15,12,36,18.20
2009,06,15,12,37,18.30
2009,06,15,12,38,18.30
2009,06,15,12,39,18.40
2009,06,15,12,40,18.50
2009,06,15,12,41,18.60
2009,06,15,12,42,18.60
2009,06,15,12,43,18.60
2009,06,15,12,44,18.60
2009,06,15,12,45,18.60
2009,06,15,12,46,18.70
2009,06,15,12,47,18.80
2009,06,15,12,48,18.80
2009,06,15,12,49,18.80
2009,06,15,12,50,18.90
2009,06,15,12,51,19.00
2009,06,15,12,52,19.00
2009,06,15,12,53,19.00
2009,06,15,12,54,19.00
2009,06,15,12,55,19.00
2009,06,15,12,56,18.90
2009,06,15,12,57,18.90
2009,06,15,12,58,18.80
2009,06,15,12,59,18.70
2009,06,15,13,00,18.60
2009,06,15,13,01,18.50
2009,06,15,13,02,18.50
2009,06,15,13,03,18.60
2009,06,15,13,04,18.60
2009,06,15,13,05,18.70
2009,06,15,13,06,18.90
2009,06,15,13,07,19.10
2009,06,15,13,08,19.40
2009,06,15,13,09,19.60
2009,06,15,13,10,19.80
2009,06,15,13,11,20.00
2009,06,15,13,12,20.20
2009,06,15,13,13,20.40
2009,06,15,13,14,20.40
2009,06,15,13,15,20.40
2009,06,15,13,16,20.50
2009,06,15,13,17,20.60
2009,06,15,13,18,20.60
2009,06,15,13,19,20.70
2009,06,15,13,20,20.80
2009,06,15,13,21,20.90
2009,06,15,13,22,20.90
2009,06,15,13,23,20.90
2009,06,15,13,24,20.80
2009,06,15,13,25,20.90
2009,06,15,13,26,20.90
2009,06,15,13,27,20.90
2009,06,15,13,28,20.80
2009,06,15,13,29,20.70
2009,06,15,13,30,20.70
2009,06,15,13,31,20.60
2009,06,15,13,32,20.40
2009,06,15,13,33,20.30
2009,06,15,13,34,20.10
2009,06,15,13,35,20.00
2009,06,15,13,36,19.90
2009,06,15,13,37,19.90
2009,06,15,13,38,19.90
2009,06,15,13,39,19.90
2009,06,15,13,40,19.80
2009,06,15,13,41,19.80
2009,06,15,13,42,19.80
2009,06,15,13,43,19.80
2009,06,15,13,44,19.80
2009,06,15,13,45,19.80
2009,06,15,13,46,19.80
2009,06,15,13,47,19.90
2009,06,15,13,48,20.00
2009,06,15,13,49,20.10
2009,06,15,13,50,20.10
2009,06,15,13,51,20.20
2009,06,15,13,52,20.30
2009,06,15,13,53,20.30
2009,06,15,13,54,20.20
2009,06,15,13,55,20.00
2009,06,15,13,56,19.90
2009,06,15,13,57,19.80
2009,06,15,13,58,19.70
2009,06,15,13,59,19.70
2009,06,15,14,00,19.70
2009,06,15,14,01,19.80
2009,06,15,14,02,19.90
2009,06,15,14,03,19.90
2009,06,15,14,04,20.00
2009,06,15,14,05,20.00
2009,06,15,14,06,20.00
2009,06,15,14,07,19.90
2009,06,15,14,08,19.90
2009,06,15,14,09,19.70
2009,06,15,14,10,19.60
2009,06,15,14,11,19.70
2009,06,15,14,12,19.80
2009,06,15,14,13,20.00
2009,06,15,14,14,20.20
2009,06,15,14,15,20.40
2009,06,15,14,16,20.50
2009,06,15,14,17,20.60
2009,06,15,14,18,20.70
2009,06,15,14,19,20.70
2009,06,15,14,20,20.70
2009,06,15,14,21,20.60
2009,06,15,14,22,20.50
2009,06,15,14,23,20.40
2009,06,15,14,24,20.30
2009,06,15,14,25,20.20
2009,06,15,14,26,20.30
2009,06,15,14,27,20.30
2009,06,15,14,28,20.30
2009,06,15,14,29,20.40
2009,06,15,14,30,20.40
2009,06,15,14,31,20.40
2009,06,15,14,32,20.40
2009,06,15,14,33,20.40
2009,06,15,14,34,20.40
2009,06,15,14,35,20.30
2009,06,15,14,36,20.40
2009,06,15,14,37,20.40
2009,06,15,14,38,20.40
2009,06,15,14,39,20.40
2009,06,15,14,40,20.30
2009,06,15,14,41,20.30
2009,06,15,14,42,20.20
2009,06,15,14,43,20.10
2009,06,15,14,44,20.10
2009,06,15,14,45,20.10
2009,06,15,14,46,20.10
2009,06,15,14,47,20.10
2009,06,15,14,48,20.10
2009,06,15,14,49,20.20
2009,06,15,14,50,20.20
2009,06,15,14,51,20.20
2009,06,15,14,52,20.20
2009,06,15,14,53,20.20
2009,06,15,14,54,20.30
2009,06,15,14,55,20.40
2009,06,15,14,56,20.50
2009,06,15,14,57,20.60
2009,06,15,14,58,20.60
2009,06,15,14,59,20.60
2009,06,15,15,00,20.70
2009,06,15,15,01,20.70
2009,06,15,15,02,20.70
2009,06,15,15,03,20.60
2009,06,15,15,04,20.60
2009,06,15,15,05,20.50
2009,06,15,15,06,20.50
2009,06,15,15,07,20.40
2009,06,15,15,08,20.40
2009,06,15,15,09,20.20
2009,06,15,15,10,20.10
2009,06,15,15,11,20.00
2009,06,15,15,12,19.90
2009,06,15,15,13,19.80
2009,06,15,15,14,19.70
2009,06,15,15,15,19.70
2009,06,15,15,16,19.70
2009,06,15,15,17,19.70
2009,06,15,15,18,19.70
2009,06,15,15,19,19.70
2009,06,15,15,20,19.80
2009,06,15,15,21,19.90
2009,06,15,15,22,19.80
2009,06,15,15,23,19.90
2009,06,15,15,24,19.90
2009,06,15,15,25,20.00
2009,06,15,15,26,20.10
2009,06,15,15,27,20.20
2009,06,15,15,28,20.20
2009,06,15,15,29,20.40
2009,06,15,15,30,20.50
2009,06,15,15,31,20.60
2009,06,15,15,32,20.60
2009,06,15,15,33,20.70
2009,06,15,15,34,20.80
2009,06,15,15,35,20.80
2009,06,15,15,36,20.80
2009,06,15,15,37,20.90
2009,06,15,15,38,20.90
2009,06,15,15,39,20.70
2009,06,15,15,40,20.60
2009,06,15,15,41,20.40
2009,06,15,15,42,20.40
2009,06,15,15,43,20.40
2009,06,15,15,44,20.30
2009,06,15,15,45,20.30
2009,06,15,15,46,20.30
2009,06,15,15,47,20.30
2009,06,15,15,48,20.40
2009,06,15,15,49,20.50
2009,06,15,15,50,20.60
2009,06,15,15,51,20.60
2009,06,15,15,52,20.70
2009,06,15,15,53,20.60
2009,06,15,15,54,20.50
2009,06,15,15,55,20.40
2009,06,15,15,56,20.40
2009,06,15,15,57,20.50
2009,06,15,15,58,20.50
2009,06,15,15,59,20.50
2009,06,15,16,00,20.40
2009,06,15,16,01,20.40
2009,06,15,16,02,20.30
2009,06,15,16,03,20.40
2009,06,15,16,04,20.40
2009,06,15,16,05,20.50
2009,06,15,16,06,20.60
2009,06,15,16,07,20.60
2009,06,15,16,08,20.70
2009,06,15,16,09,20.70
2009,06,15,16,10,20.80
2009,06,15,16,11,20.90
2009,06,15,16,12,20.90
2009,06,15,16,13,20.90
2009,06,15,16,14,20.80
2009,06,15,16,15,20.70
2009,06,15,16,16,20.70
2009,06,15,16,17,20.70
2009,06,15,16,18,20.60
2009,06,15,16,19,20.50
2009,06,15,16,20,20.40
2009,06,15,16,21,20.40
2009,06,15,16,22,20.40
2009,06,15,16,23,20.40
2009,06,15,16,24,20.50
2009,06,15,16,25,20.50
2009,06,15,16,26,20.40
2009,06,15,16,27,20.40
2009,06,15,16,28,20.40
2009,06,15,16,29,20.50
2009,06,15,16,30,20.60
2009,06,15,16,31,20.60
2009,06,15,16,32,20.60
2009,06,15,16,33,20.60
2009,06,15,16,34,20.70
2009,06,15,16,35,20.70
2009,06,15,16,36,20.70
2009,06,15,16,37,20.70
2009,06,15,16,38,20.50
2009,06,15,16,39,20.40
2009,06,15,16,40,20.20
2009,06,15,16,41,20.00
2009,06,15,16,42,20.00
2009,06,15,16,43,20.10
2009,06,15,16,44,20.10
2009,06,15,16,45,20.20
2009,06,15,16,46,20.30
2009,06,15,16,47,20.40
2009,06,15,16,48,20.50
2009,06,15,16,49,20.60
2009,06,15,16,50,20.60
2009,06,15,16,51,20.70
2009,06,15,16,52,20.80
2009,06,15,16,53,20.80
2009,06,15,16,54,20.80
2009,06,15,16,55,20.70
2009,06,15,16,56,20.70
2009,06,15,16,57,20.60
2009,06,15,16,58,20.40
2009,06,15,16,59,20.30
2009,06,15,17,00,20.30
2009,06,15,17,01,20.30
2009,06,15,17,02,20.20
2009,06,15,17,03,20.20
2009,06,15,17,04,20.10
2009,06,15,17,05,19.90
2009,06,15,17,06,19.80
2009,06,15,17,07,19.70
2009,06,15,17,08,19.70
2009,06,15,17,09,19.60
2009,06,15,17,10,19.60
2009,06,15,17,11,19.60
2009,06,15,17,12,19.60
2009,06,15,17,13,19.50
2009,06,15,17,14,19.40
2009,06,15,17,15,19.40
2009,06,15,17,16,19.30
2009,06,15,17,17,19.30
2009,06,15,17,18,19.30
2009,06,15,17,19,19.30